Torna al catalogo

SATCOM 3 DEB

LostHEO
NORAD 49958·DEBRIS·🇺🇸 United States

Lanciato Dec 7, 1979 da Cape Canaveral Space Force Station

Loading…

Prossimi Passaggi (prossime 24 ore)

TLE

ObsoletoSource: Space-Track

Epoca: Mar 3, 2024, 04:07 UTC

1 49958U 79101AC  24063.17195618 -.00000083  00000-0  00000+0 0  9997
2 49958  11.2641  66.6390 4524115 141.6855 326.5659  1.72951492 98704

Traccia SATCOM 3 DEB in tempo reale con AllMySat

Download on the App Store